Track STARLINK-1438 now! 10-day predictions STARLINK-1438 is classified as:
1 45715U 20035BL 21027.39066477 .00200278 28911-4 30930-3 0 9998 2 45715 52.9911 66.2187 0002205 55.1816 304.9421 16.03824772 38718